SCP
0 0 0 0 0 0 0 0 0 0 0 0 0 0 0 0 0 0 0 0 0 0
0 0 0 0 0 0 0 0 0 0 0 0 0 0 0 0 0 0 0 0 0 0
0 0 0 0 0 0 0 0 0 0 0 0 0 0 0 0 0 0 0 0 0 0
0 0 0 0 0 0 0 0 0 0 0 0 0 0 0 0 0 0 0 0 0 0
0 0 0 0 0 0 0 0 0 0 0 0 0 0 0 0 0 0 0 0 0 0
0 0 0 0 0 0 0 0 0 0 0 0 0 0 0 0 0 0 0 0 0 0
0 0 0 0 0 0 0 0 0 0 0 0 0 0 0 0 0 0 0 0 0 0
0 0 0 0 0 0 0 0 0 0 0 0 0 0 0 0 0 0 0 0 0 0
0 0 0 0 0 0 0 0 0 0 0 0 0 0 0 0 0 0 0 0 0 0
0 0 0 0 0 0 0 0 0 0 0 0 0 0 0 0 0 0 0 0 0 0
0 0 0 0 0 0 0 0 0 0 0 0 0 0 0 0 0 0 0 0 0 0
0 0 0 0 0 0 0 0 0 0 0 0 0 0 0 0 0 0 0 0 0 0
0 0 0 0 0 0 0 0 0 0 0 0 0 0 0 0 0 0 0 0 0 0
0 0 0 0 0 0 0 0 0 0 0 0 0 0 0 0 0 0 0 0 0 0
Wind_Speed_500mb
74 77 76 71 78 76 71 65 70 84 84 89 88 86 88 85 79 103 99 111 91 84
62 68 71 71 74 78 71 65 66 67 71 79 76 82 75 90 90 82 97 100 98 84
42 50 58 64 73 73 72 67 62 60 63 69 76 77 83 79 78 76 83 94 88 84
32 38 45 54 65 69 67 64 59 56 59 61 68 74 75 84 84 84 84 88 87 86
30 34 40 48 55 62 62 57 54 55 58 59 64 69 75 71 75 87 88 83 82 79
37 40 42 46 51 58 57 52 53 54 57 59 64 69 69 74 81 86 86 83 76 73
44 43 49 53 50 48 49 52 52 54 56 57 62 65 66 70 74 77 76 69 68 67
55 57 57 59 55 47 51 52 50 52 57 56 59 62 64 64 70 71 69 69 65 63
61 59 59 57 53 51 49 50 51 50 54 54 54 55 54 56 64 71 68 69 66 54
62 62 59 55 52 52 49 49 51 48 51 53 53 51 52 52 58 62 64 65 53 64
58 53 51 52 51 50 49 51 50 47 48 51 52 51 50 48 50 61 63 52 57 57
45 43 43 45 45 44 46 47 46 44 47 46 47 51 50 48 51 57 60 70 65 62
36 36 36 36 38 37 39 39 40 43 43 40 37 41 40 44 43 53 65 61 63 68
29 30 30 31 33 31 32 31 32 34 34 33 31 34 30 34 38 44 59 69 76 74
Wind_Direction_500mb
245 249 250 249 255 256 254 253 250 245 238 237 239 244 244 244 250 251 247 236 232 235
249 251 251 251 251 259 259 255 252 248 241 241 242 239 246 251 246 252 245 236 233 236
258 256 254 251 252 256 261 261 257 249 244 246 242 246 245 248 248 243 244 234 236 241
269 265 259 254 254 256 259 259 259 254 252 253 244 242 250 253 240 245 238 234 236 238
273 272 269 262 258 259 258 256 255 254 250 248 246 247 248 245 255 244 240 240 239 240
275 271 272 267 264 262 261 256 254 251 248 245 247 250 249 254 249 241 242 239 239 238
272 277 277 269 263 262 259 254 255 253 250 245 248 248 251 256 252 246 242 239 239 233
269 266 267 269 267 266 257 251 254 254 250 247 247 251 255 255 247 241 237 238 230 230
272 270 268 267 267 264 259 252 252 254 250 250 250 254 256 253 246 241 236 231 235 227
272 270 267 264 259 257 255 251 250 256 250 249 253 257 260 257 247 240 233 239 222 218
266 266 263 262 260 258 255 251 248 252 249 248 250 253 260 261 249 240 240 225 216 224
265 262 258 258 260 260 256 254 253 254 250 249 248 250 253 251 247 238 224 220 220 220
266 266 262 256 252 249 248 247 250 254 255 258 255 253 253 255 246 233 231 219 209 212
268 263 259 252 248 243 243 242 241 247 254 258 259 261 263 262 254 241 227 215 220 225
Wind_Speed_850mb
74 77 76 71 78 76 71 65 70 84 84 89 88 86 88 85 79 103 99 111 91 84
62 68 71 71 74 78 71 65 66 67 71 79 76 82 75 90 90 82 97 100 98 84
42 50 58 64 73 73 72 67 62 60 63 69 76 77 83 79 78 76 83 94 88 84
32 38 45 54 65 69 67 64 59 56 59 61 68 74 75 84 84 84 84 88 87 86
30 34 40 48 55 62 62 57 54 55 58 59 64 69 75 71 75 87 88 83 82 79
37 40 42 46 51 58 57 52 53 54 57 59 64 69 69 74 81 86 86 83 76 73
44 43 49 53 50 48 49 52 52 54 56 57 62 65 66 70 74 77 76 69 68 67
55 57 57 59 55 47 51 52 50 52 57 56 59 62 64 64 70 71 69 69 65 63
61 59 59 57 53 51 49 50 51 50 54 54 54 55 54 56 64 71 68 69 66 54
62 62 59 55 52 52 49 49 51 48 51 53 53 51 52 52 58 62 64 65 53 64
58 53 51 52 51 50 49 51 50 47 48 51 52 51 50 48 50 61 63 52 57 57
45 43 43 45 45 44 46 47 46 44 47 46 47 51 50 48 51 57 60 70 65 62
36 36 36 36 38 37 39 39 40 43 43 40 37 41 40 44 43 53 65 61 63 68
29 30 30 31 33 31 32 31 32 34 34 33 31 34 30 34 38 44 59 69 76 74
Wind_Direction_850mb
245 249 250 249 255 256 254 253 250 245 238 237 239 244 244 244 250 251 247 236 232 235
249 251 251 251 251 259 259 255 252 248 241 241 242 239 246 251 246 252 245 236 233 236
258 256 254 251 252 256 261 261 257 249 244 246 242 246 245 248 248 243 244 234 236 241
269 265 259 254 254 256 259 259 259 254 252 253 244 242 250 253 240 245 238 234 236 238
273 272 269 262 258 259 258 256 255 254 250 248 246 247 248 245 255 244 240 240 239 240
275 271 272 267 264 262 261 256 254 251 248 245 247 250 249 254 249 241 242 239 239 238
272 277 277 269 263 262 259 254 255 253 250 245 248 248 251 256 252 246 242 239 239 233
269 266 267 269 267 266 257 251 254 254 250 247 247 251 255 255 247 241 237 238 230 230
272 270 268 267 267 264 259 252 252 254 250 250 250 254 256 253 246 241 236 231 235 227
272 270 267 264 259 257 255 251 250 256 250 249 253 257 260 257 247 240 233 239 222 218
266 266 263 262 260 258 255 251 248 252 249 248 250 253 260 261 249 240 240 225 216 224
265 262 258 258 260 260 256 254 253 254 250 249 248 250 253 251 247 238 224 220 220 220
266 266 262 256 252 249 248 247 250 254 255 258 255 253 253 255 246 233 231 219 209 212
268 263 259 252 248 243 243 242 241 247 254 258 259 261 263 262 254 241 227 215 220 225